| time (UTC) | temp F | wind direction | speed MPH | gust MPH | rain 1hr in | rain 24hr in | rain mn in | humidity % | barometer mb |
| 20260507092051 | 46 | 0.0 | 0.0 | 0.00 | 0.21 | 0.08 | 99 | 1015.4 | |
| 20260507091049 | 46 | 0.0 | 0.0 | 0.00 | 0.21 | 0.08 | 99 | 1015.2 | |
| 20260507090047 | 46 | 0.0 | 2.0 | 0.00 | 0.21 | 0.08 | 99 | 1015.1 | |
| 20260507085045 | 46 | 68 | 0.0 | 9.0 | 0.00 | 0.21 | 0.08 | 99 | 1015.0 |
| 20260507084043 | 47 | 0.0 | 2.0 | 0.00 | 0.21 | 0.08 | 99 | 1014.8 | |
| 20260507083041 | 46 | 282 | 0.0 | 2.0 | 0.00 | 0.21 | 0.08 | 99 | 1014.8 |
| 20260507082039 | 46 | 0.0 | 2.0 | 0.00 | 0.21 | 0.08 | 99 | 1014.7 | |
| 20260507081037 | 46 | 23 | 0.0 | 2.0 | 0.00 | 0.21 | 0.08 | 99 | 1014.6 |
| 20260507080035 | 45 | 338 | 0.0 | 2.0 | 0.00 | 0.21 | 0.08 | 99 | 1014.5 |
| 20260507075033 | 46 | 0.0 | 2.0 | 0.00 | 0.21 | 0.08 | 99 | 1014.3 | |
| 20260507074031 | 46 | 0.0 | 2.0 | 0.00 | 0.21 | 0.08 | 99 | 1014.2 | |
| 20260507073029 | 45 | 0.0 | 0.0 | 0.00 | 0.21 | 0.08 | 99 | 1013.9 | |
| 20260507072027 | 45 | 0.0 | 0.0 | 0.00 | 0.22 | 0.08 | 99 | 1013.9 | |
| 20260507071045 | 46 | 45 | 0.0 | 2.0 | 0.00 | 0.22 | 0.08 | 99 | 1013.8 |
| 20260507070023 | 45 | 338 | 0.0 | 2.0 | 0.00 | 0.24 | 0.08 | 99 | 1013.8 |
| 20260507065021 | 45 | 68 | 0.0 | 2.0 | 0.00 | 0.24 | 0.08 | 99 | 1013.7 |
| 20260507064019 | 46 | 0.0 | 2.0 | 0.00 | 0.25 | 0.08 | 99 | 1013.5 | |
| 20260507063037 | 46 | 0.0 | 2.0 | 0.00 | 0.26 | 0.08 | 99 | 1013.4 | |
| 20260507062015 | 46 | 0.0 | 2.0 | 0.00 | 0.26 | 0.08 | 99 | 1013.3 | |
| 20260507061113 | 46 | 0.0 | 0.0 | 0.00 | 0.27 | 0.08 | 99 | 1013.1 | |
| 20260507060131 | 46 | 90 | 0.0 | 4.0 | 0.00 | 0.28 | 0.08 | 99 | 1012.9 |
| 20260507055109 | 46 | 0.0 | 0.0 | 0.00 | 0.28 | 0.08 | 99 | 1012.8 | |
| 20260507054107 | 46 | 0.0 | 2.0 | 0.00 | 0.30 | 0.08 | 99 | 1012.6 | |
| 20260507053105 | 46 | 0.0 | 0.0 | 0.00 | 0.31 | 0.08 | 99 | 1012.6 | |
| 20260507052103 | 46 | 0.0 | 2.0 | 0.01 | 0.31 | 0.08 | 99 | 1012.4 | |
| 20260507051101 | 46 | 23 | 0.0 | 2.0 | 0.01 | 0.32 | 0.08 | 99 | 1012.3 |
| 20260507050058 | 46 | 349 | 0.0 | 2.0 | 0.01 | 0.32 | 0.08 | 99 | 1012.3 |
| 20260507045056 | 46 | 0.0 | 0.0 | 0.01 | 0.32 | 0.08 | 99 | 1012.1 | |
| 20260507044054 | 46 | 90 | 0.0 | 4.0 | 0.01 | 0.34 | 0.08 | 99 | 1012.0 |
| 20260507043053 | 46 | 331 | 0.0 | 4.0 | 0.01 | 0.34 | 0.08 | 99 | 1012.0 |
| 20260507042051 | 47 | 327 | 0.0 | 4.0 | 0.00 | 0.34 | 0.07 | 99 | 1011.9 |
| 20260507041048 | 47 | 58 | 0.0 | 4.0 | 0.00 | 0.34 | 0.07 | 99 | 1011.7 |
| 20260507040047 | 47 | 0.0 | 0.0 | 0.00 | 0.37 | 0.07 | 99 | 1011.7 | |
| 20260507035045 | 47 | 113 | 0.0 | 2.0 | 0.00 | 0.38 | 0.07 | 99 | 1011.6 |
| 20260507034042 | 47 | 252 | 1.0 | 4.0 | 0.00 | 0.39 | 0.07 | 99 | 1011.5 |
| 20260507033040 | 47 | 0.0 | 2.0 | 0.00 | 0.40 | 0.07 | 99 | 1011.2 | |
| 20260507032039 | 47 | 287 | 1.0 | 2.0 | 0.00 | 0.41 | 0.07 | 99 | 1011.3 |
| 20260507031036 | 47 | 270 | 0.0 | 2.0 | 0.00 | 0.44 | 0.07 | 99 | 1011.4 |
| 20260507030035 | 47 | 277 | 0.0 | 2.0 | 0.00 | 0.47 | 0.07 | 99 | 1011.3 |
| 20260507025033 | 47 | 284 | 1.0 | 4.0 | 0.00 | 0.50 | 0.07 | 99 | 1011.1 |
| 20260507024031 | 46 | 270 | 1.0 | 2.0 | 0.01 | 0.53 | 0.07 | 99 | 1011.1 |
| 20260507023049 | 47 | 265 | 1.0 | 4.0 | 0.01 | 0.56 | 0.07 | 99 | 1011.1 |
| 20260507022026 | 47 | 282 | 1.0 | 2.0 | 0.01 | 0.58 | 0.07 | 99 | 1011.0 |
| 20260507021025 | 47 | 269 | 1.0 | 7.0 | 0.01 | 0.60 | 0.07 | 99 | 1010.9 |
| 20260507020022 | 47 | 270 | 0.0 | 2.0 | 0.01 | 0.61 | 0.07 | 99 | 1010.9 |
| 20260507015020 | 46 | 278 | 1.0 | 2.0 | 0.01 | 0.64 | 0.07 | 99 | 1010.7 |
| 20260507014018 | 46 | 279 | 2.0 | 6.0 | 0.00 | 0.65 | 0.06 | 99 | 1010.8 |
| 20260507013016 | 46 | 271 | 2.0 | 6.0 | 0.00 | 0.66 | 0.06 | 99 | 1010.7 |
| 20260507012114 | 47 | 303 | 1.0 | 4.0 | 0.00 | 0.67 | 0.06 | 99 | 1010.6 |
| 20260507011113 | 47 | 303 | 1.0 | 4.0 | 0.00 | 0.70 | 0.06 | 99 | 1010.6 |
| 20260507010130 | 47 | 296 | 1.0 | 4.0 | 0.00 | 0.71 | 0.06 | 99 | 1010.5 |
| 20260507005108 | 47 | 295 | 1.0 | 6.0 | 0.01 | 0.74 | 0.06 | 99 | 1010.5 |
| 20260507004106 | 47 | 271 | 2.0 | 4.0 | 0.01 | 0.77 | 0.06 | 99 | 1010.5 |
| 20260507003104 | 47 | 305 | 1.0 | 2.0 | 0.02 | 0.78 | 0.06 | 99 | 1010.4 |
| 20260507002102 | 47 | 257 | 1.0 | 9.0 | 0.02 | 0.80 | 0.06 | 99 | 1010.3 |
| 20260507001100 | 47 | 296 | 1.0 | 4.0 | 0.02 | 0.81 | 0.06 | 99 | 1010.3 |
| 20260507000058 | 47 | 289 | 2.0 | 7.0 | 0.02 | 0.84 | 0.06 | 99 | 1010.2 |
| 20260506235056 | 47 | 286 | 1.0 | 4.0 | 0.01 | 0.84 | 0.05 | 99 | 1010.3 |
| 20260506234054 | 47 | 268 | 3.0 | 7.0 | 0.02 | 0.85 | 0.05 | 99 | 1010.2 |
| 20260506233052 | 47 | 285 | 2.0 | 4.0 | 0.01 | 0.86 | 0.04 | 99 | 1010.2 |
| 20260506232110 | 47 | 269 | 2.0 | 7.0 | 0.01 | 0.87 | 0.04 | 99 | 1010.2 |
| 20260506231048 | 47 | 270 | 2.0 | 6.0 | 0.02 | 0.89 | 0.04 | 99 | 1010.1 |
| 20260506230046 | 47 | 265 | 2.0 | 6.0 | 0.04 | 0.90 | 0.04 | 99 | 1010.1 |
| 20260506225104 | 48 | 264 | 2.0 | 4.0 | 0.04 | 0.91 | 0.04 | 99 | 1010.0 |
| 20260506224042 | 48 | 277 | 1.0 | 2.0 | 0.02 | 0.91 | 0.02 | 99 | 1010.0 |
| 20260506223040 | 48 | 283 | 2.0 | 4.0 | 0.02 | 0.92 | 0.02 | 99 | 1009.8 |
| 20260506222038 | 48 | 252 | 1.0 | 4.0 | 0.02 | 0.93 | 0.02 | 99 | 1009.8 |
| 20260506221056 | 48 | 252 | 1.0 | 2.0 | 0.01 | 0.93 | 0.01 | 99 | 1009.8 |
| 20260506220034 | 48 | 256 | 1.0 | 4.0 | 0.01 | 0.92 | 0.00 | 99 | 1009.7 |
| 20260506215032 | 48 | 252 | 2.0 | 6.0 | 0.01 | 0.93 | 0.92 | 99 | 1009.8 |
| 20260506214050 | 48 | 270 | 1.0 | 4.0 | 0.01 | 0.94 | 0.92 | 99 | 1009.7 |
| 20260506213028 | 48 | 258 | 0.0 | 4.0 | 0.01 | 0.96 | 0.92 | 99 | 1009.7 |
| 20260506212046 | 48 | 0.0 | 2.0 | 0.01 | 0.97 | 0.92 | 99 | 1009.5 | |
| 20260506211024 | 48 | 270 | 1.0 | 4.0 | 0.02 | 0.97 | 0.92 | 99 | 1009.6 |
| 20260506210022 | 48 | 0 | 0.0 | 2.0 | 0.01 | 0.97 | 0.91 | 99 | 1009.6 |
| 20260506205020 | 48 | 238 | 1.0 | 2.0 | 0.01 | 0.97 | 0.91 | 99 | 1009.7 |
| 20260506204018 | 48 | 263 | 2.0 | 4.0 | 0.01 | 0.97 | 0.91 | 99 | 1009.6 |
| 20260506203036 | 48 | 0.0 | 2.0 | 0.01 | 0.98 | 0.91 | 99 | 1009.5 | |
| 20260506202114 | 48 | 0.0 | 2.0 | 0.02 | 0.98 | 0.91 | 99 | 1009.5 | |
| 20260506201112 | 48 | 280 | 1.0 | 2.0 | 0.01 | 0.97 | 0.90 | 99 | 1009.5 |
| 20260506200110 | 48 | 300 | 0.0 | 2.0 | 0.01 | 0.98 | 0.90 | 99 | 1009.4 |
| 20260506195108 | 48 | 212 | 2.0 | 4.0 | 0.01 | 0.98 | 0.90 | 99 | 1009.3 |
| 20260506194106 | 48 | 268 | 2.0 | 4.0 | 0.01 | 0.99 | 0.90 | 99 | 1009.1 |
| 20260506193104 | 49 | 288 | 1.0 | 4.0 | 0.01 | 1.02 | 0.90 | 99 | 1009.1 |
| 20260506192102 | 49 | 297 | 1.0 | 2.0 | 0.00 | 1.00 | 0.89 | 99 | 1009.0 |
| 20260506191100 | 49 | 293 | 1.0 | 4.0 | 0.00 | 1.00 | 0.89 | 99 | 1008.9 |
| 20260506190058 | 49 | 272 | 3.0 | 7.0 | 0.00 | 1.00 | 0.89 | 99 | 1008.8 |
| 20260506185056 | 49 | 267 | 3.0 | 6.0 | 0.00 | 1.00 | 0.89 | 99 | 1008.7 |
| 20260506184054 | 49 | 275 | 2.0 | 4.0 | 0.00 | 1.00 | 0.89 | 99 | 1008.5 |
| 20260506183052 | 49 | 266 | 2.0 | 4.0 | 0.00 | 1.00 | 0.89 | 99 | 1008.5 |
| 20260506182050 | 49 | 264 | 3.0 | 6.0 | 0.00 | 1.00 | 0.89 | 99 | 1008.3 |
| 20260506181108 | 49 | 285 | 2.0 | 4.0 | 0.00 | 1.00 | 0.89 | 99 | 1008.3 |
| 20260506180045 | 50 | 274 | 3.0 | 7.0 | 0.00 | 1.00 | 0.89 | 99 | 1008.3 |
| 20260506175124 | 50 | 240 | 3.0 | 7.0 | 0.00 | 1.00 | 0.89 | 99 | 1008.2 |
| 20260506174102 | 50 | 267 | 3.0 | 8.0 | 0.00 | 1.00 | 0.89 | 99 | 1008.1 |
| 20260506173040 | 50 | 249 | 2.0 | 7.0 | 0.00 | 1.00 | 0.89 | 99 | 1008.2 |
| 20260506172038 | 50 | 262 | 2.0 | 8.0 | 0.00 | 1.00 | 0.89 | 98 | 1008.1 |
| 20260506171035 | 50 | 257 | 2.0 | 4.0 | 0.00 | 1.00 | 0.89 | 98 | 1008.0 |
| 20260506170033 | 50 | 258 | 2.0 | 7.0 | 0.00 | 1.00 | 0.89 | 98 | 1008.0 |
| 20260506165032 | 50 | 263 | 3.0 | 7.0 | 0.00 | 1.00 | 0.89 | 98 | 1008.0 |
| 20260506164110 | 50 | 261 | 2.0 | 4.0 | 0.00 | 1.00 | 0.89 | 98 | 1008.0 |
| 20260506163027 | 50 | 259 | 1.0 | 4.0 | 0.00 | 1.00 | 0.89 | 98 | 1008.0 |
| 20260506162025 | 51 | 244 | 2.0 | 7.0 | 0.00 | 1.00 | 0.89 | 98 | 1007.8 |
| 20260506161043 | 51 | 251 | 2.0 | 6.0 | 0.00 | 1.00 | 0.89 | 99 | 1007.9 |
| 20260506160021 | 51 | 245 | 2.0 | 6.0 | 0.00 | 1.00 | 0.89 | 98 | 1007.8 |
| 20260506155019 | 51 | 251 | 3.0 | 7.0 | 0.00 | 1.00 | 0.89 | 99 | 1008.0 |
| 20260506154017 | 51 | 257 | 1.0 | 4.0 | 0.00 | 1.00 | 0.89 | 99 | 1007.9 |
| 20260506153015 | 51 | 265 | 1.0 | 4.0 | 0.00 | 1.00 | 0.89 | 99 | 1007.9 |
| 20260506152114 | 51 | 256 | 3.0 | 6.0 | 0.00 | 1.00 | 0.89 | 99 | 1007.9 |
| 20260506151112 | 51 | 256 | 3.0 | 6.0 | 0.00 | 1.00 | 0.89 | 99 | 1007.8 |
| 20260506150130 | 51 | 260 | 2.0 | 6.0 | 0.00 | 1.00 | 0.89 | 99 | 1007.7 |
| 20260506145107 | 51 | 251 | 3.0 | 7.0 | 0.00 | 1.00 | 0.89 | 99 | 1007.6 |
| 20260506144106 | 51 | 259 | 2.0 | 7.0 | 0.01 | 1.00 | 0.89 | 99 | 1007.8 |
| 20260506143104 | 51 | 253 | 2.0 | 7.0 | 0.01 | 1.00 | 0.89 | 99 | 1007.9 |
| 20260506142101 | 51 | 241 | 2.0 | 4.0 | 0.01 | 1.00 | 0.89 | 99 | 1007.9 |
| 20260506141119 | 51 | 242 | 2.0 | 4.0 | 0.01 | 1.00 | 0.89 | 99 | 1007.8 |
| 20260506140057 | 51 | 240 | 2.0 | 4.0 | 0.02 | 1.00 | 0.89 | 99 | 1007.9 |
| 20260506135115 | 51 | 253 | 3.0 | 4.0 | 0.04 | 1.00 | 0.89 | 99 | 1007.8 |
| 20260506134053 | 51 | 260 | 2.0 | 6.0 | 0.04 | 0.99 | 0.87 | 99 | 1007.8 |
| 20260506133112 | 51 | 259 | 2.0 | 4.0 | 0.05 | 0.99 | 0.87 | 99 | 1007.8 |
| 20260506132049 | 51 | 257 | 1.0 | 4.0 | 0.05 | 0.99 | 0.87 | 99 | 1007.8 |
| 20260506131047 | 52 | 248 | 0.0 | 2.0 | 0.05 | 0.99 | 0.87 | 99 | 1007.8 |
| 20260506130045 | 51 | 0.0 | 2.0 | 0.04 | 0.98 | 0.86 | 99 | 1007.8 | |
| 20260506125043 | 51 | 0.0 | 2.0 | 0.02 | 0.97 | 0.85 | 99 | 1007.8 | |
| 20260506124041 | 51 | 0.0 | 2.0 | 0.01 | 0.96 | 0.84 | 99 | 1007.8 | |
| 20260506123039 | 50 | 0.0 | 0.0 | 0.00 | 0.94 | 0.83 | 99 | 1007.7 | |
| 20260506122037 | 51 | 270 | 0.0 | 2.0 | 0.00 | 0.94 | 0.83 | 99 | 1007.6 |
| 20260506121035 | 51 | 270 | 0.0 | 2.0 | 0.00 | 0.94 | 0.83 | 99 | 1007.5 |
| 20260506120033 | 51 | 0.0 | 0.0 | 0.00 | 0.94 | 0.83 | 99 | 1007.5 | |
| 20260506115031 | 51 | 0.0 | 0.0 | 0.00 | 0.94 | 0.83 | 99 | 1007.5 | |
| 20260506114029 | 50 | 0.0 | 2.0 | 0.00 | 0.94 | 0.83 | 99 | 1007.5 | |
| 20260506113027 | 50 | 270 | 0.0 | 2.0 | 0.01 | 0.94 | 0.83 | 99 | 1007.5 |
| 20260506112025 | 50 | 0.0 | 2.0 | 0.01 | 0.94 | 0.83 | 99 | 1007.6 | |
| 20260506111023 | 50 | 0.0 | 2.0 | 0.01 | 0.94 | 0.83 | 99 | 1007.5 | |
| 20260506110021 | 51 | 0.0 | 0.0 | 0.02 | 0.94 | 0.83 | 99 | 1007.4 | |
| 20260506105039 | 51 | 0.0 | 2.0 | 0.02 | 0.94 | 0.83 | 99 | 1007.4 | |
| 20260506104017 | 50 | 0.0 | 0.0 | 0.04 | 0.94 | 0.83 | 99 | 1007.5 | |
| 20260506103015 | 50 | 0.0 | 0.0 | 0.02 | 0.93 | 0.81 | 99 | 1007.4 | |
| 20260506102113 | 50 | 0.0 | 0.0 | 0.02 | 0.93 | 0.81 | 99 | 1007.5 | |
| 20260506101112 | 50 | 0.0 | 0.0 | 0.02 | 0.93 | 0.81 | 99 | 1007.4 | |
| 20260506100110 | 50 | 0.0 | 0.0 | 0.01 | 0.92 | 0.80 | 99 | 1007.4 | |
| 20260506095128 | 50 | 0.0 | 0.0 | 0.01 | 0.92 | 0.80 | 99 | 1007.2 | |
| 20260506094105 | 50 | 0.0 | 2.0 | 0.00 | 0.91 | 0.79 | 99 | 1007.2 | |
| 20260506093103 | 50 | 0.0 | 0.0 | 0.00 | 0.91 | 0.79 | 99 | 1007.1 |